User: anonymous
Location: Unspecified
(0.0000°N, 0.0000°E)
Time: 00:38:35
(UTC+00:00)
Language:

RISAT 1 - Orbit

View from above orbital plane
View from above orbital plane
View from above satellite
View from above satellite

Ground track
Ground track

The orbit data is extracted from the following two-line orbital elements,

1 38248U 12017A   14109.53551508  .00002447  00000-0  15894-3 0  2500
2 38248 097.5616 117.5417 0004220 077.9560 080.6219 15.08962887109111
Epoch (UTC): 19 April 2014 12:51:08
Eccentricity: 0.0004220
inclination: 97.5616°
perigee height: 536 km
apogee height: 542 km
right ascension of ascending node: 117.5417°
argument of perigee: 77.9560°
revolutions per day: 15.08962887
mean anomaly at epoch: 80.6219°
orbit number at epoch: 10911

The dashed part of the orbit path shows where the satellite is in the earth's shadow,  

DLR